GW2978 Weather Reports


Display with metric or nautical units.
time (UTC)temp
F
wind
direction
speed
MPH
gust
MPH
rain 1hr
in
rain 24hr
in
rain mn
in
humidity
%
barometer
mb
20260503045713 37 143 1.0 1.0 0.00 0.00 0.00 84 1015.0
20260503045210 37 184 0.0 1.0 0.00 0.00 0.00 83 1014.9
20260503044707 37 162 1.0 1.0 0.00 0.00 0.00 83 1014.8
20260503044204 37 180 0.0 0.0 0.00 0.00 0.00 83 1014.9
20260503043700 37 194 0.0 0.0 0.00 0.00 0.00 83 1014.8
20260503043158 37 193 0.0 2.0 0.00 0.00 0.00 82 1014.9
20260503042654 38 184 0.0 0.0 0.00 0.00 0.00 82 1014.8
20260503042151 38 166 1.0 1.0 0.00 0.00 0.00 81 1014.7
20260503041647 39 194 0.0 1.0 0.00 0.00 0.00 81 1014.7
20260503041145 39 199 0.0 0.0 0.00 0.00 0.00 81 1014.6
20260503040642 40 170 1.0 1.0 0.00 0.00 0.00 81 1014.5
20260503040140 40 82 2.0 3.0 0.00 0.00 0.00 81 1014.5
20260503035636 39 70 2.0 3.0 0.00 0.00 0.00 80 1014.7
20260503035134 39 150 1.0 2.0 0.00 0.00 0.00 80 1014.6
20260503034631 39 156 1.0 1.0 0.00 0.00 0.00 80 1014.7
20260503034128 39 152 1.0 2.0 0.00 0.00 0.00 79 1014.6
20260503033625 40 167 0.0 1.0 0.00 0.00 0.00 79 1014.7
20260503033122 40 167 0.0 1.0 0.00 0.00 0.00 78 1014.5
20260503032621 40 136 2.0 2.0 0.00 0.00 0.00 78 1014.6
20260503032119 40 167 1.0 1.0 0.00 0.00 0.00 77 1014.3
20260503031616 40 143 1.0 1.0 0.00 0.00 0.00 76 1014.5
20260503031113 40 174 0.0 0.0 0.00 0.00 0.00 76 1014.3
20260503030609 41 165 0.0 1.0 0.00 0.00 0.00 75 1014.4
20260503030106 42 157 1.0 1.0 0.00 0.00 0.00 74 1014.1
20260503025603 42 172 0.0 2.0 0.00 0.00 0.00 73 1014.1
20260503025101 42 166 0.0 2.0 0.00 0.00 0.00 73 1013.9
20260503024557 42 159 1.0 1.0 0.00 0.00 0.00 72 1013.9
20260503024054 43 161 1.0 1.0 0.00 0.00 0.00 71 1013.9
20260503023551 42 141 1.0 2.0 0.00 0.00 0.00 70 1013.9
20260503023048 43 168 0.0 0.0 0.00 0.00 0.00 69 1013.9
20260503022544 44 151 1.0 1.0 0.00 0.00 0.00 69 1013.9
20260503022039 44 116 2.0 2.0 0.00 0.00 0.00 67 1013.8
20260503021536 44 136 2.0 2.0 0.00 0.00 0.00 66 1013.7
20260503021033 44 127 2.0 2.0 0.00 0.00 0.00 65 1014.0
20260503020530 44 172 0.0 0.0 0.00 0.00 0.00 63 1014.0
20260503020027 45 166 0.0 1.0 0.00 0.00 0.00 62 1014.0
20260503015524 45 163 0.0 1.0 0.00 0.00 0.00 61 1013.8
20260503015021 45 171 0.0 1.0 0.00 0.00 0.00 60 1013.9
20260503014517 46 171 0.0 0.0 0.00 0.00 0.00 59 1013.7
20260503014015 47 178 0.0 0.0 0.00 0.00 0.00 58 1013.7
20260503013512 48 148 0.0 1.0 0.00 0.00 0.00 56 1013.4
20260503013009 48 143 1.0 2.0 0.00 0.00 0.00 56 1013.5
20260503012507 48 176 0.0 0.0 0.00 0.00 0.00 55 1013.6
20260503012003 48 173 0.0 1.0 0.00 0.00 0.00 54 1013.4
20260503011500 49 176 0.0 0.0 0.00 0.00 0.00 53 1013.3
20260503010957 49 171 0.0 1.0 0.00 0.00 0.00 53 1013.2
20260503010453 50 139 1.0 2.0 0.00 0.00 0.00 53 1013.3
20260503005951 50 152 0.0 1.0 0.00 0.00 0.00 52 1012.9
20260503005448 50 233 0.0 0.0 0.00 0.00 0.00 51 1013.2
20260503004944 50 191 0.0 1.0 0.00 0.00 0.00 51 1013.1
20260503004441 51 179 0.0 1.0 0.00 0.00 0.00 50 1013.0
20260503003939 51 188 0.0 0.0 0.00 0.00 0.00 49 1012.8
20260503003436 52 190 0.0 2.0 0.00 0.00 0.00 49 1012.9
20260503002933 52 161 2.0 3.0 0.00 0.00 0.00 48 1012.8
20260503002430 52 62 1.0 6.0 0.00 0.00 0.00 48 1012.6
20260503001926 53 239 1.0 4.0 0.00 0.00 0.00 47 1012.7
20260503001423 53 97 2.0 3.0 0.00 0.00 0.00 47 1012.6
20260503000920 53 192 0.0 2.0 0.00 0.00 0.00 47 1012.5
20260503000417 54 319 2.0 4.0 0.00 0.00 0.00 46 1012.4
20260502235914 54 41 2.0 9.0 0.00 0.00 0.00 46 1012.3
20260502235411 55 258 2.0 3.0 0.00 0.00 0.00 45 1012.3
20260502234909 55 200 1.0 4.0 0.00 0.00 0.00 45 1012.0
20260502234405 55 56 2.0 6.0 0.00 0.00 0.00 45 1011.9
20260502233902 56 250 0.0 7.0 0.00 0.00 0.00 44 1011.8
20260502233357 56 216 1.0 3.0 0.00 0.00 0.00 43 1011.8
20260502232855 57 229 2.0 8.0 0.00 0.00 0.00 43 1011.3
20260502232351 57 252 2.0 7.0 0.00 0.00 0.00 42 1011.5
20260502231848 58 284 2.0 6.0 0.00 0.00 0.00 42 1011.2
20260502231346 59 214 4.0 8.0 0.00 0.00 0.00 41 1011.2
20260502230844 59 338 4.0 7.0 0.00 0.00 0.00 40 1011.2
20260502230342 59 182 2.0 8.0 0.00 0.00 0.00 40 1011.2
20260502225838 60 350 4.0 9.0 0.00 0.00 0.00 40 1011.2
20260502225335 60 239 3.0 8.0 0.00 0.00 0.00 40 1011.2
20260502224832 60 269 3.0 7.0 0.00 0.00 0.00 40 1011.3
20260502224328 60 216 2.0 9.0 0.00 0.00 0.00 39 1011.0
20260502223825 60 214 3.0 4.0 0.00 0.00 0.00 40 1011.3
20260502223323 59 189 0.0 14.0 0.00 0.00 0.00 39 1011.1
20260502222821 61 281 8.0 14.0 0.00 0.00 0.00 38 1011.1
20260502222318 60 328 3.0 11.0 0.00 0.00 0.00 39 1011.1
20260502221814 59 278 2.0 10.0 0.00 0.00 0.00 39 1011.0
20260502221310 59 25 7.0 10.0 0.00 0.00 0.00 39 1011.0
20260502220808 61 265 6.0 13.0 0.00 0.00 0.00 38 1011.0
20260502220303 61 322 5.0 7.0 0.00 0.00 0.00 39 1010.8
20260502215800 60 327 6.0 11.0 0.00 0.00 0.00 39 1010.5
20260502215257 60 325 7.0 16.0 0.00 0.00 0.00 38 1010.4
20260502214754 60 303 2.0 7.0 0.00 0.00 0.00 38 1010.5
20260502214251 61 343 4.0 13.0 0.00 0.00 0.00 37 1010.5
20260502213748 63 293 5.0 11.0 0.00 0.00 0.00 36 1010.2
20260502213245 62 107 2.0 11.0 0.00 0.00 0.00 36 1010.2
20260502212744 62 29 11.0 16.0 0.00 0.00 0.00 36 1010.1
20260502212242 63 312 11.0 15.0 0.00 0.00 0.00 37 1010.0
20260502211737 62 118 4.0 10.0 0.00 0.00 0.00 37 1009.8
20260502211234 62 277 4.0 8.0 0.00 0.00 0.00 37 1009.9
20260502210731 62 37 9.0 11.0 0.00 0.00 0.00 36 1010.1
20260502210229 64 355 6.0 14.0 0.00 0.00 0.00 36 1009.8
20260502205726 64 218 2.0 8.0 0.00 0.00 0.00 35 1009.6
20260502205222 65 141 6.0 13.0 0.00 0.00 0.00 34 1009.4
20260502204719 66 259 6.0 11.0 0.00 0.00 0.00 35 1009.5
20260502204217 66 246 10.0 11.0 0.00 0.00 0.00 35 1009.7
20260502203714 65 197 0.0 7.0 0.00 0.00 0.00 35 1009.3
20260502203212 65 343 8.0 10.0 0.00 0.00 0.00 35 1009.5
20260502202706 64 218 2.0 3.0 0.00 0.00 0.00 35 1009.7
20260502202205 65 10 4.0 6.0 0.00 0.00 0.00 34 1009.4
20260502201702 66 226 1.0 7.0 0.00 0.00 0.00 33 1009.4
20260502201158 66 126 3.0 7.0 0.00 0.00 0.00 34 1009.6
20260502200654 66 236 6.0 10.0 0.00 0.00 0.00 35 1009.4
20260502200150 64 196 1.0 7.0 0.00 0.00 0.00 34 1010.0
20260502195649 66 222 2.0 8.0 0.00 0.00 0.00 35 1009.8
20260502195145 66 236 10.0 13.0 0.00 0.00 0.00 34 1009.8
20260502194642 65 323 8.0 11.0 0.00 0.00 0.00 34 1009.7
20260502194138 65 339 7.0 10.0 0.00 0.00 0.00 34 1010.0
20260502193635 66 200 2.0 13.0 0.00 0.00 0.00 34 1009.9
20260502193132 65 18 7.0 9.0 0.00 0.00 0.00 34 1009.9
20260502192627 66 212 5.0 11.0 0.00 0.00 0.00 33 1010.1
20260502192125 65 239 2.0 3.0 0.00 0.00 0.00 34 1010.0
20260502191622 64 295 6.0 11.0 0.00 0.00 0.00 32 1010.1
20260502191119 66 55 4.0 7.0 0.00 0.00 0.00 33 1010.1
20260502190617 64 33 3.0 4.0 0.00 0.00 0.00 33 1010.4
20260502190114 64 280 1.0 4.0 0.00 0.00 0.00 34 1010.4
20260502185609 63 170 1.0 6.0 0.00 0.00 0.00 33 1010.2
20260502185106 63 5 7.0 11.0 0.00 0.00 0.00 34 1010.5
20260502184602 64 12 6.0 10.0 0.00 0.00 0.00 35 1010.5
20260502184057 64 204 1.0 3.0 0.00 0.00 0.00 36 1010.4
20260502183554 64 250 4.0 10.0 0.00 0.00 0.00 37 1010.5
20260502183050 64 195 2.0 9.0 0.00 0.00 0.00 39 1010.6
20260502182546 63 255 2.0 7.0 0.00 0.00 0.00 39 1010.4
20260502182042 63 169 3.0 7.0 0.00 0.00 0.00 40 1010.5
20260502181540 62 132 3.0 3.0 0.00 0.00 0.00 41 1010.6
20260502181038 62 161 0.0 7.0 0.00 0.00 0.00 42 1010.8
20260502180535 62 182 7.0 9.0 0.00 0.00 0.00 41 1010.8
20260502170454 58 73 4.0 6.0 0.00 0.00 0.00 42 1012.0
20260502163937 57 57 5.0 8.0 0.00 0.00 0.00 42 1012.3
20260502163433 57 76 3.0 4.0 0.00 0.00 0.00 41 1012.6
20260502162931 58 145 2.0 8.0 0.00 0.00 0.00 42 1012.7
20260502162428 57 53 2.0 3.0 0.00 0.00 0.00 44 1012.9
20260502161925 56 293 3.0 3.0 0.00 0.00 0.00 44 1012.6
20260502161421 56 104 2.0 6.0 0.00 0.00 0.00 44 1013.0
20260502160919 55 73 4.0 6.0 0.00 0.00 0.00 44 1013.0
20260502160417 55 171 1.0 2.0 0.00 0.00 0.00 44 1012.8
20260502151855 53 287 3.0 6.0 0.00 0.00 0.00 46 1013.0
20260502151351 53 355 7.0 9.0 0.00 0.00 0.00 46 1013.1
20260502150849 53 164 1.0 2.0 0.00 0.00 0.00 46 1013.1
20260502150345 53 28 6.0 8.0 0.00 0.00 0.00 46 1013.4
20260502130734 51 190 0.0 2.0 0.00 0.00 0.00 59 1012.9
20260502130231 52 203 1.0 3.0 0.00 0.00 0.00 60 1012.8
20260502123717 51 217 1.0 2.0 0.00 0.00 0.00 63 1012.5
20260502123214 51 179 0.0 2.0 0.00 0.00 0.00 63 1012.6
20260502122710 51 202 0.0 2.0 0.00 0.00 0.00 64 1012.5
20260502122207 51 343 2.0 3.0 0.00 0.00 0.00 65 1012.5
20260502121705 51 59 1.0 3.0 0.00 0.00 0.00 67 1012.2
20260502121203 51 161 0.0 2.0 0.00 0.00 0.00 67 1012.3
20260502120659 51 27 2.0 3.0 0.00 0.00 0.00 68 1011.9
20260502120156 51 254 1.0 2.0 0.00 0.00 0.00 69 1012.3
20260502115654 51 77 1.0 2.0 0.00 0.00 0.00 71 1012.0
20260502115149 51 140 1.0 2.0 0.00 0.00 0.00 72 1012.2
20260502114646 51 176 0.0 0.0 0.00 0.00 0.00 73 1012.3
20260502114143 51 167 0.0 2.0 0.00 0.00 0.00 73 1012.1
20260502113640 51 175 0.0 1.0 0.00 0.00 0.00 73 1012.4
20260502113138 51 126 1.0 2.0 0.00 0.00 0.00 73 1012.1
20260502112636 50 199 0.0 1.0 0.00 0.00 0.00 74 1011.9
20260502112133 50 10 2.0 3.0 0.00 0.00 0.00 74 1012.1
20260502111631 50 147 1.0 3.0 0.00 0.00 0.00 75 1012.2
20260502111128 50 149 0.0 1.0 0.00 0.00 0.00 75 1012.1
20260502110626 50 90 1.0 2.0 0.00 0.00 0.00 75 1011.8
20260502110123 50 171 0.0 0.0 0.00 0.00 0.00 75 1011.8
20260502105620 50 173 0.0 0.0 0.00 0.00 0.00 75 1012.0
20260502105117 50 159 0.0 1.0 0.00 0.00 0.00 75 1011.7
20260502104614 50 163 0.0 2.0 0.00 0.00 0.00 75 1011.7
20260502104112 50 172 0.0 0.0 0.00 0.00 0.00 75 1011.8
20260502103609 50 175 0.0 0.0 0.00 0.00 0.00 75 1011.7
20260502103108 50 180 0.0 0.0 0.00 0.00 0.00 74 1011.5
20260502102603 51 177 0.0 1.0 0.00 0.00 0.00 74 1011.4
20260502102101 50 168 0.0 1.0 0.00 0.00 0.00 74 1011.7
20260502101558 51 176 0.0 0.0 0.00 0.00 0.00 73 1011.8
20260502101057 51 177 0.0 0.0 0.00 0.00 0.00 73 1011.5
20260502100555 51 152 0.0 0.0 0.00 0.00 0.00 73 1011.5
20260502091529 52 204 0.0 1.0 0.00 0.00 0.00 72 1011.9
20260502091027 52 199 0.0 2.0 0.00 0.00 0.00 72 1011.9
20260502090523 52 146 0.0 0.0 0.00 0.00 0.00 72 1011.9
20260502071418 54 19 1.0 2.0 0.00 0.00 0.00 76 1011.2
20260502070916 53 153 0.0 4.0 0.00 0.00 0.00 77 1011.1
20260502070414 54 291 0.0 3.0 0.00 0.00 0.00 77 1010.8
20260502065912 54 177 2.0 4.0 0.00 0.00 0.00 77 1010.8
20260502065411 54 335 2.0 3.0 0.00 0.00 0.00 78 1010.9
20260502064908 54 182 1.0 3.0 0.00 0.00 0.00 79 1011.1
20260502064406 54 352 3.0 4.0 0.00 0.00 0.00 80 1011.1
20260502063903 53 152 2.0 4.0 0.00 0.00 0.00 81 1011.1
20260502063400 54 238 1.0 2.0 0.00 0.00 0.00 82 1011.2
20260502062858 54 164 0.0 1.0 0.00 0.00 0.00 83 1011.5
20260502062355 54 63 2.0 3.0 0.00 0.00 0.00 84 1011.1
20260502061854 53 80 1.0 3.0 0.00 0.00 0.00 85 1011.3
20260502061351 53 299 1.0 3.0 0.00 0.00 0.00 86 1011.2
20260502060847 51 335 2.0 7.0 0.00 0.00 0.00 87 1011.5
20260502060342 50 174 0.0 0.0 0.00 0.00 0.00 88 1011.4
20260502055839 50 185 0.0 1.0 0.00 0.00 0.00 88 1011.7
20260502055338 50 244 0.0 0.0 0.00 0.00 0.00 88 1011.7
20260502054837 50 175 0.0 0.0 0.00 0.00 0.00 88 1011.9
20260502054334 51 175 0.0 0.0 0.00 0.00 0.00 88 1011.5
20260502053831 51 195 0.0 1.0 0.00 0.00 0.00 88 1011.8
20260502053328 51 133 1.0 2.0 0.00 0.00 0.00 88 1011.7
20260502052826 52 160 0.0 0.0 0.00 0.00 0.00 88 1011.9
20260502052324 52 157 1.0 1.0 0.00 0.00 0.00 88 1011.7
20260502051821 52 169 0.0 0.0 0.00 0.00 0.00 88 1011.7
20260502051320 52 157 0.0 0.0 0.00 0.00 0.00 88 1011.7
20260502050816 51 162 1.0 1.0 0.00 0.00 0.00 88 1011.5
20260502050313 51 176 0.0 0.0 0.00 0.00 0.00 89 1011.8